AAL1660 KPHL-KLGA

Flight info

Callsign AAL1660
Flight time 0h 30m
Altitude 8000
Route RUUTH V123 PROUD
Aircraft CRJ9/M-SDFGIRWY/S

Departure

Time 2026-05-07 01:01
Airport Philadelphia International Airport (KPHL)

Arrival

Time 2026-05-07 01:31
Airport LaGuardia Airport (KLGA)
Time Latitude Longitude Altitude Speed Heading
2026-05-07 00:33 39.87526 -75.23887 24 ft 0 kts 69°
2026-05-07 00:51 39.87525 -75.23889 24 ft 2 kts 69°
2026-05-07 00:51 39.87516 -75.23919 26 ft 2 kts 69°
2026-05-07 00:51 39.87511 -75.23947 26 ft 4 kts 90°
2026-05-07 00:52 39.87518 -75.23971 27 ft 3 kts 128°
2026-05-07 00:52 39.87533 -75.23995 25 ft 1 kts 128°
2026-05-07 00:52 39.87533 -75.23996 25 ft 1 kts 128°
2026-05-07 00:57 39.87529 -75.23988 24 ft 4 kts 128°
2026-05-07 00:57 39.87501 -75.23946 24 ft 7 kts 139°
2026-05-07 00:57 39.87458 -75.23915 24 ft 8 kts 154°
2026-05-07 00:57 39.87407 -75.23892 24 ft 8 kts 164°
2026-05-07 00:58 39.87348 -75.23870 24 ft 9 kts 152°
2026-05-07 00:58 39.87296 -75.23822 24 ft 10 kts 159°
2026-05-07 00:58 39.87228 -75.23795 26 ft 11 kts 165°
2026-05-07 00:58 39.87153 -75.23771 25 ft 12 kts 166°
2026-05-07 00:59 39.86986 -75.23713 26 ft 12 kts 156°
2026-05-07 00:59 39.86968 -75.23646 24 ft 11 kts 78°
2026-05-07 00:59 39.86983 -75.23573 24 ft 4 kts 76°
2026-05-07 01:00 39.86982 -75.23532 26 ft 5 kts 119°
2026-05-07 01:00 39.86956 -75.23510 24 ft 6 kts 160°
2026-05-07 01:00 39.86887 -75.23517 24 ft 11 kts 231°
2026-05-07 01:00 39.86859 -75.23619 24 ft 18 kts 255°
2026-05-07 01:01 39.86766 -75.24088 24 ft 90 kts 256°
2026-05-07 01:01 39.86561 -75.25122 24 ft 144 kts 256°
2026-05-07 01:01 39.86258 -75.26588 134 ft 189 kts 254°
2026-05-07 01:01 39.85844 -75.28251 972 ft 201 kts 245°
2026-05-07 01:02 39.85110 -75.29764 2186 ft 202 kts 226°
2026-05-07 01:02 39.83985 -75.30844 3342 ft 206 kts 219°
2026-05-07 01:02 39.82826 -75.31909 4506 ft 207 kts 219°
2026-05-07 01:02 39.81636 -75.32952 5630 ft 207 kts 219°
2026-05-07 01:03 39.80338 -75.33701 6677 ft 220 kts 191°
2026-05-07 01:03 39.78866 -75.33152 7705 ft 241 kts 150°
2026-05-07 01:03 39.77868 -75.31358 8804 ft 256 kts 111°
2026-05-07 01:03 39.77729 -75.28995 9508 ft 278 kts 83°
2026-05-07 01:04 39.78038 -75.26475 9923 ft 307 kts 80°
2026-05-07 01:04 39.78448 -75.23613 10003 ft 345 kts 79°
2026-05-07 01:04 39.78952 -75.20436 9970 ft 382 kts 78°
2026-05-07 01:04 39.79331 -75.18187 9904 ft 406 kts 78°
2026-05-07 01:05 39.80135 -75.13472 9757 ft 409 kts 77°
2026-05-07 01:05 39.80728 -75.10033 9579 ft 394 kts 77°
2026-05-07 01:05 39.81343 -75.06745 9386 ft 382 kts 71°
2026-05-07 01:05 39.82490 -75.03806 9166 ft 370 kts 52°
2026-05-07 01:06 39.84024 -75.01235 8964 ft 361 kts 46°
2026-05-07 01:06 39.85071 -74.99682 8832 ft 355 kts 44°
2026-05-07 01:06 39.87248 -74.96633 8565 ft 346 kts 43°
2026-05-07 01:06 39.88291 -74.95185 8435 ft 343 kts 43°
2026-05-07 01:07 39.90393 -74.92293 8182 ft 335 kts 43°
2026-05-07 01:07 39.91935 -74.90186 8104 ft 327 kts 43°
2026-05-07 01:07 39.93434 -74.88126 8054 ft 318 kts 42°
2026-05-07 01:07 39.94948 -74.86050 8029 ft 330 kts 43°
2026-05-07 01:08 39.96491 -74.83845 8040 ft 344 kts 45°
2026-05-07 01:08 39.97530 -74.82314 8057 ft 352 kts 45°
2026-05-07 01:08 39.99140 -74.79955 8070 ft 362 kts 44°
2026-05-07 01:08 40.00811 -74.77560 8084 ft 372 kts 45°
2026-05-07 01:09 40.02499 -74.75056 8063 ft 380 kts 45°
2026-05-07 01:09 40.04229 -74.72542 8011 ft 376 kts 44°
2026-05-07 01:09 40.06433 -74.69378 7989 ft 367 kts 45°
2026-05-07 01:09 40.07587 -74.67716 7986 ft 364 kts 45°
2026-05-07 01:10 40.09224 -74.65350 7989 ft 358 kts 45°
2026-05-07 01:10 40.10827 -74.63039 8004 ft 342 kts 44°
2026-05-07 01:10 40.12351 -74.60861 7989 ft 332 kts 44°
2026-05-07 01:10 40.13874 -74.58671 7975 ft 337 kts 44°
2026-05-07 01:11 40.15427 -74.56430 7991 ft 344 kts 44°
2026-05-07 01:11 40.16972 -74.54198 7998 ft 350 kts 44°
2026-05-07 01:11 40.18528 -74.51949 8002 ft 354 kts 44°
2026-05-07 01:11 40.20158 -74.49608 8013 ft 358 kts 43°
2026-05-07 01:12 40.21869 -74.47341 8007 ft 361 kts 40°
2026-05-07 01:12 40.23716 -74.45236 8002 ft 359 kts 28°
2026-05-07 01:12 40.25944 -74.43983 7996 ft 349 kts
2026-05-07 01:12 40.28276 -74.43789 8012 ft 340 kts 351°
2026-05-07 01:13 40.30619 -74.43926 8027 ft 342 kts 349°
2026-05-07 01:13 40.32953 -74.44103 8028 ft 344 kts 348°
2026-05-07 01:13 40.35286 -74.44322 8032 ft 345 kts 348°
2026-05-07 01:13 40.37661 -74.44561 8027 ft 347 kts 348°
2026-05-07 01:14 40.40027 -74.44794 8041 ft 349 kts 348°
2026-05-07 01:14 40.42433 -74.45048 8024 ft 351 kts 348°
2026-05-07 01:14 40.44844 -74.44993 7990 ft 364 kts
2026-05-07 01:14 40.47223 -74.43804 7948 ft 379 kts 26°
2026-05-07 01:15 40.49171 -74.41657 7875 ft 366 kts 47°
2026-05-07 01:15 40.50426 -74.38925 7681 ft 346 kts 69°
2026-05-07 01:15 40.51116 -74.36036 7517 ft 333 kts 75°
2026-05-07 01:15 40.51448 -74.33137 7302 ft 335 kts 95°
2026-05-07 01:16 40.51148 -74.30296 7153 ft 320 kts 105°
2026-05-07 01:16 40.50733 -74.27553 7053 ft 311 kts 106°
2026-05-07 01:16 40.50277 -74.24795 7006 ft 318 kts 107°
2026-05-07 01:16 40.49784 -74.21970 6996 ft 320 kts 107°
2026-05-07 01:17 40.49293 -74.19185 6987 ft 321 kts 108°
2026-05-07 01:17 40.48799 -74.16412 6976 ft 321 kts 108°
2026-05-07 01:17 40.48295 -74.13596 6992 ft 321 kts 107°
2026-05-07 01:17 40.48131 -74.10710 6988 ft 327 kts 84°
2026-05-07 01:18 40.48778 -74.07969 6986 ft 321 kts 59°
2026-05-07 01:18 40.50095 -74.05804 6938 ft 302 kts 34°
2026-05-07 01:18 40.51886 -74.04517 6740 ft 294 kts
2026-05-07 01:18 40.53805 -74.04096 6525 ft 282 kts 359°
2026-05-07 01:19 40.55739 -74.03796 6250 ft 284 kts 358°
2026-05-07 01:19 40.57645 -74.03598 5867 ft 281 kts 356°
2026-05-07 01:19 40.59566 -74.03512 5493 ft 281 kts 359°
2026-05-07 01:19 40.61404 -74.02685 5116 ft 292 kts 26°
2026-05-07 01:20 40.63033 -74.01242 4738 ft 291 kts 29°
2026-05-07 01:20 40.64708 -73.99833 4336 ft 286 kts 27°
2026-05-07 01:20 40.66331 -73.98488 4166 ft 276 kts 27°
2026-05-07 01:20 40.67912 -73.97155 4071 ft 264 kts 27°
2026-05-07 01:21 40.69482 -73.96301 4028 ft 242 kts
2026-05-07 01:21 40.71101 -73.95755 3639 ft 255 kts
2026-05-07 01:21 40.72795 -73.95173 3309 ft 254 kts
2026-05-07 01:21 40.74445 -73.94622 3156 ft 246 kts
2026-05-07 01:22 40.76050 -73.94083 3044 ft 235 kts
2026-05-07 01:22 40.77582 -73.93560 3004 ft 233 kts
2026-05-07 01:22 40.79226 -73.93023 3005 ft 256 kts
2026-05-07 01:22 40.80942 -73.92475 3010 ft 264 kts
2026-05-07 01:23 40.82763 -73.91907 3020 ft 283 kts
2026-05-07 01:23 40.84616 -73.91339 3014 ft 275 kts
2026-05-07 01:23 40.86443 -73.90791 3006 ft 269 kts
2026-05-07 01:23 40.88188 -73.90254 2996 ft 265 kts
2026-05-07 01:24 40.89948 -73.89703 2966 ft 261 kts 10°
2026-05-07 01:24 40.91576 -73.88694 2949 ft 262 kts 27°
2026-05-07 01:24 40.93038 -73.87469 2975 ft 244 kts 27°
2026-05-07 01:24 40.94424 -73.86334 2982 ft 226 kts 26°
2026-05-07 01:25 40.95711 -73.85225 2969 ft 231 kts 28°
2026-05-07 01:25 40.97067 -73.84059 3004 ft 240 kts 30°
2026-05-07 01:25 40.98122 -73.82352 2974 ft 252 kts 67°
2026-05-07 01:25 40.98279 -73.80226 2923 ft 237 kts 101°
2026-05-07 01:26 40.97970 -73.78138 2575 ft 238 kts 105°
2026-05-07 01:26 40.97590 -73.76071 2256 ft 236 kts 109°
2026-05-07 01:26 40.96767 -73.74362 2082 ft 214 kts 150°
2026-05-07 01:26 40.95485 -73.73861 2004 ft 188 kts 198°
2026-05-07 01:27 40.94278 -73.74484 2040 ft 186 kts 212°
2026-05-07 01:27 40.93152 -73.75229 2028 ft 188 kts 214°
2026-05-07 01:27 40.91979 -73.76087 2031 ft 201 kts 215°
2026-05-07 01:27 40.90787 -73.76980 2027 ft 193 kts 216°
2026-05-07 01:28 40.89635 -73.77857 2057 ft 195 kts 217°
2026-05-07 01:28 40.88477 -73.78791 2063 ft 198 kts 218°
2026-05-07 01:28 40.87346 -73.79722 2031 ft 188 kts 217°
2026-05-07 01:28 40.86299 -73.80636 1996 ft 174 kts 219°
2026-05-07 01:29 40.85325 -73.81447 1866 ft 167 kts 218°
2026-05-07 01:29 40.84362 -73.82204 1629 ft 151 kts 216°
2026-05-07 01:29 40.83527 -73.82821 1268 ft 130 kts 216°
2026-05-07 01:29 40.82768 -73.83418 802 ft 124 kts 215°
2026-05-07 01:30 40.81992 -73.84113 631 ft 149 kts 216°
2026-05-07 01:30 40.81108 -73.84910 672 ft 164 kts 215°
2026-05-07 01:30 40.80191 -73.85709 474 ft 144 kts 211°
2026-05-07 01:30 40.79416 -73.86330 154 ft 125 kts 211°
2026-05-07 01:31 40.78638 -73.86984 55 ft 131 kts 212°
2026-05-07 01:31 40.77970 -73.87534 14 ft 97 kts 212°
2026-05-07 01:31 40.77475 -73.87949 22 ft 73 kts 214°
2026-05-07 01:31 40.77154 -73.88217 22 ft 21 kts 209°
2026-05-07 01:32 40.77050 -73.88181 24 ft 12 kts 96°
2026-05-07 01:32 40.77100 -73.88113 21 ft 12 kts 31°
2026-05-07 01:32 40.77178 -73.88049 19 ft 14 kts 32°
2026-05-07 01:32 40.77265 -73.87977 19 ft 15 kts 32°
2026-05-07 01:33 40.77358 -73.87900 19 ft 16 kts 32°
2026-05-07 01:33 40.77455 -73.87820 21 ft 17 kts 32°
2026-05-07 01:33 40.77554 -73.87738 21 ft 17 kts 32°
2026-05-07 01:33 40.77651 -73.87658 20 ft 5 kts 32°
2026-05-07 01:34 40.77712 -73.87603 19 ft 17 kts 39°
2026-05-07 01:34 40.77737 -73.87493 17 ft 18 kts 69°
2026-05-07 01:34 40.77773 -73.87321 13 ft 20 kts 92°
2026-05-07 01:34 40.77719 -73.87153 13 ft 21 kts 130°
2026-05-07 01:35 40.77678 -73.87109 15 ft 0 kts 186°
2026-05-07 01:35 40.77670 -73.87115 16 ft 4 kts 231°
2026-05-07 01:35 40.77669 -73.87164 17 ft 11 kts 269°
2026-05-07 01:35 40.77666 -73.87174 17 ft 1 kts 226°
2026-05-07 01:36 40.77653 -73.87177 19 ft 3 kts 166°
2026-05-07 01:36 40.77631 -73.87170 18 ft 2 kts 167°
2026-05-07 01:36 40.77627 -73.87169 18 ft 0 kts 168°